Location: Julian California
(33.0790°N, 116.6010°W)
Time: 14:12:57
(UTC-08:00)

Lacrosse 5 - Pass Details

Date: 12 July 2018
Orbit: 713 x 726 km, 57.0° (Epoch: 15 November)

Event Time Altitude Azimuth Distance (km) Brightness Sun altitude
Rises 22:53:55 0° 319° (NW) 3,122 6.4 -28.3°
Reaches altitude 10° 22:56:18 10° 318° (NW) 2,197 5.3 -28.5°
Enters shadow 23:00:23 57° 298° (WNW) 842 2.3 -29.0°
